Wind_Speed
19 19 19 19 19 20 20 21 21 20 21 21 22 23 24 25 26 27 27 28 29 30 31 32 33 33 34 35 35 36 36 37 37 37 38 38 39 39 40 40 40 41 41 42
22 22 22 22 22 23 23 23 24 23 23 24 25 26 26 27 28 28 29 30 30 31 31 32 33 34 35 36 37 37 38 38 39 39 39 39 40 40 40 41 41 42 42 42
25 25 25 25 24 25 25 26 26 25 25 27 27 29 29 29 30 31 31 32 32 32 33 34 35 35 36 37 38 39 39 39 40 40 40 40 41 41 41 41 41 42 43 43
30 29 28 27 27 27 28 28 28 28 28 29 30 30 31 32 32 32 33 34 34 34 34 35 36 37 37 38 39 39 40 41 41 41 41 41 41 41 41 42 42 43 43 44
32 32 30 29 29 30 31 31 31 31 31 32 32 32 33 34 34 35 35 36 36 37 37 38 39 39 40 40 41 41 41 42 42 42 42 42 42 42 42 42 43 43 44 44
35 35 33 31 32 33 33 33 33 33 34 34 34 34 34 36 37 37 38 38 38 39 39 40 41 41 42 42 43 43 43 43 42 43 43 43 43 43 43 44 44 44 44 45
37 38 37 35 35 36 36 36 36 36 36 36 36 36 37 38 39 39 40 40 41 41 41 42 42 43 43 43 42 43 43 43 43 43 43 43 43 43 44 44 45 45 45 44
40 41 39 38 38 38 38 38 38 38 38 38 38 39 39 40 41 41 41 42 43 43 43 43 44 43 43 42 43 43 43 43 43 43 43 43 44 44 44 44 45 45 44 44
43 42 41 41 41 41 41 40 40 40 40 40 41 41 42 42 43 43 43 43 43 43 42 43 43 43 43 43 44 44 44 44 44 44 44 44 44 44 45 45 45 45 44 43
44 43 43 43 44 44 44 43 43 42 42 43 43 43 44 44 45 45 44 44 44 43 43 44 44 45 45 45 45 45 45 45 45 45 45 45 45 45 45 45 45 44 43 43
46 45 45 45 46 46 46 45 45 45 45 45 45 45 45 45 45 44 44 45 45 45 45 45 46 46 46 46 46 46 46 46 46 46 46 46 46 45 45 45 45 43 43 42
47 46 48 47 47 47 47 47 47 46 46 47 47 46 46 46 46 45 45 45 45 46 46 46 46 46 46 46 46 46 46 45 46 46 46 45 45 44 44 43 43 42 42 42
48 49 49 48 48 48 49 48 48 48 48 48 47 47 47 47 47 47 46 46 46 46 47 46 46 46 46 46 46 46 45 45 45 45 45 44 43 43 42 42 41 41 41 41
49 49 49 49 49 49 50 50 50 49 49 49 48 48 48 47 47 47 47 47 47 47 47 46 46 46 46 45 45 45 45 45 45 44 44 43 42 42 41 41 40 40 40 40
49 49 49 49 50 50 50 50 49 49 48 48 48 48 48 48 47 47 47 47 46 46 46 46 46 45 45 45 45 44 44 43 43 42 42 42 41 41 40 40 40 40 39 39
49 50 50 50 50 50 49 49 50 49 49 48 48 48 48 48 47 47 46 46 45 45 45 45 45 44 44 44 44 43 43 42 42 41 40 40 40 40 40 40 39 39 39 38
49 49 49 49 49 49 49 49 49 49 48 48 48 48 48 48 47 47 46 45 45 44 44 44 44 43 43 43 43 42 42 41 41 40 40 40 40 40 40 40 39 39 39 38
48 48 48 48 48 48 47 47 48 48 48 48 48 48 48 47 47 46 46 45 44 44 43 44 43 43 43 43 42 42 41 41 41 41 40 40 40 39 39 39 38 38 37 35
44 45 45 46 46 46 46 46 47 47 47 47 47 47 47 47 46 46 45 45 44 44 43 43 43 43 43 43 42 42 42 42 41 41 40 40 40 39 38 38 37 36 35 34
41 42 43 43 44 45 45 46 46 46 46 46 46 46 46 46 45 45 44 44 43 44 43 43 43 43 43 43 43 43 42 42 41 40 39 39 38 37 36 36 36 35 34 33
42 42 42 43 43 44 45 46 46 46 46 46 46 46 46 45 45 45 44 44 43 44 44 43 42 42 41 41 41 42 41 40 40 39 38 37 37 37 36 35 34 34 33 33
43 43 43 44 44 45 45 46 46 45 45 45 45 45 45 45 45 44 44 44 44 44 44 43 42 41 41 40 40 39 39 38 38 37 37 36 36 35 34 34 33 33 32 31
43 43 44 44 45 45 45 45 45 46 46 45 45 44 44 44 45 45 44 44 44 43 42 41 40 40 40 39 39 38 37 36 36 35 35 34 34 33 32 32 32 32 31 30
44 45 46 46 46 47 46 45 46 46 46 45 45 45 45 45 44 44 43 42 41 41 39 38 38 38 37 37 36 36 35 34 34 33 32 32 31 31 31 30 30 30 29 29
44 45 46 46 47 47 47 46 45 45 45 44 44 43 43 43 42 41 40 39 38 37 36 35 35 35 35 34 33 33 32 32 32 31 31 30 30 29 29 28 28 27 27 26
45 45 45 45 46 45 45 45 44 43 43 43 41 40 40 40 40 39 37 36 35 34 33 32 32 32 32 31 31 30 30 30 29 29 28 28 27 27 26 26 26 26 25 25
43 44 44 43 43 43 43 43 42 42 41 40 39 38 38 38 37 36 35 33 32 32 31 31 30 29 29 29 28 28 27 27 27 26 26 25 25 25 24 24 24 24 24 23
Wind_Direction
294 291 288 285 282 281 280 279 277 275 274 275 275 274 274 275 275 275 275 275 274 273 272 272 272 272 272 273 273 274 275 276 276 277 277 278 278 279 279 280 280 281 282 283
293 290 287 285 282 280 280 280 280 277 275 274 275 275 276 276 275 276 276 277 276 276 275 274 274 274 273 274 274 274 275 276 276 277 278 279 279 279 279 279 280 281 282 283
290 288 287 286 283 280 280 279 279 277 275 275 275 276 276 276 276 276 277 277 277 277 277 277 277 276 276 276 276 276 277 277 277 278 278 278 279 279 279 279 279 281 282 284
289 287 286 287 284 280 278 278 278 276 275 274 274 275 276 276 276 277 277 277 277 278 278 278 278 278 278 278 278 278 278 278 277 278 278 278 278 279 278 279 280 281 283 284
290 289 287 286 284 281 278 277 277 277 275 275 275 275 275 275 276 276 277 278 278 278 278 279 279 278 278 279 279 279 279 278 278 278 278 278 278 278 278 279 280 282 283 284
289 289 289 289 285 283 280 279 278 277 276 276 275 275 275 275 276 277 278 278 279 279 280 280 281 281 280 279 279 279 279 278 278 278 278 278 278 278 278 279 281 282 283 284
286 287 288 289 287 285 283 283 280 279 278 278 277 278 278 277 277 278 280 280 281 281 281 281 282 282 281 280 279 279 279 279 279 279 278 278 278 278 278 280 281 283 283 284
284 284 287 287 285 284 283 282 282 281 281 281 281 281 280 280 280 280 280 281 281 282 281 281 282 281 280 280 279 279 279 279 279 278 278 278 278 279 279 280 281 282 283 283
282 284 284 284 284 284 283 282 282 282 282 282 282 282 282 282 282 282 281 282 282 282 282 282 281 281 281 280 280 279 279 279 279 278 279 279 278 279 279 280 281 282 282 282
281 281 281 281 281 281 281 281 282 282 283 283 283 283 284 283 283 282 282 282 282 282 282 282 282 281 281 281 280 279 278 279 278 278 278 278 279 279 279 280 280 280 280 280
279 278 277 277 278 278 279 280 281 282 282 283 283 283 284 284 284 283 283 282 282 282 282 282 282 282 281 280 279 279 278 278 278 278 278 278 279 279 279 279 279 279 279 279
278 277 276 276 276 277 278 279 279 280 281 281 282 283 284 284 284 284 283 283 283 282 282 282 282 282 281 280 280 279 278 278 278 278 278 278 278 279 279 279 279 279 280 279
277 276 276 277 276 276 277 277 278 278 279 281 282 283 284 284 284 284 284 284 283 283 283 282 282 282 281 280 280 279 279 278 278 278 277 277 277 278 277 277 278 279 279 278
275 275 276 276 276 276 276 277 278 278 279 280 282 283 283 284 284 284 284 284 284 284 283 282 282 281 280 279 279 279 279 279 278 277 277 276 276 276 276 276 276 276 277 277
275 275 275 275 276 277 277 278 278 279 279 280 281 282 283 284 284 284 284 283 283 283 282 282 281 280 279 278 278 278 278 278 277 277 277 276 276 276 275 275 275 275 276 276
274 274 275 275 276 276 277 277 278 279 279 279 280 281 282 283 283 283 283 282 282 282 282 281 280 279 278 278 278 277 277 277 276 276 276 276 275 274 274 274 275 275 276 276
274 274 274 275 275 276 277 278 279 279 279 279 279 279 280 281 282 282 282 282 282 282 280 279 279 279 278 278 278 277 276 276 276 276 276 276 275 273 273 273 274 275 276 277
274 274 274 275 276 277 277 278 278 278 279 279 278 279 280 280 281 281 281 281 281 281 280 279 279 278 278 278 277 276 276 276 276 275 275 276 275 274 273 273 274 275 276 275
273 274 275 276 276 276 276 277 277 278 279 278 279 279 280 280 281 280 280 280 280 281 280 279 278 278 277 276 276 276 275 275 275 275 275 275 275 274 273 273 274 274 274 274
273 274 276 277 277 277 277 277 278 279 279 279 279 280 280 280 280 280 280 280 281 281 280 278 277 277 277 277 276 276 276 275 274 273 274 274 273 272 272 272 273 273 272 271
276 277 277 278 278 278 279 279 279 279 279 279 279 279 279 279 279 279 279 280 281 281 281 279 278 277 277 276 276 276 276 274 273 272 272 272 271 271 271 271 272 272 271 270
278 279 280 280 280 280 281 281 281 281 280 280 280 280 280 279 279 280 280 281 281 281 280 279 278 277 276 276 276 275 275 274 272 272 272 271 270 269 268 268 269 270 270 271
280 280 282 282 282 282 282 283 283 282 282 281 281 281 281 281 281 281 281 281 281 281 280 279 278 277 276 276 275 274 273 273 272 271 270 269 268 268 267 267 267 268 268 269
281 282 283 283 283 283 284 284 284 283 282 282 282 282 282 281 282 282 282 281 281 281 280 279 278 277 276 275 273 272 272 271 270 269 268 267 266 265 266 266 266 265 265 267
283 284 284 283 283 284 284 284 283 282 282 281 282 282 283 282 282 282 282 282 281 280 279 279 277 275 274 273 272 271 269 269 268 267 265 264 264 263 264 264 264 263 264 266
284 285 286 286 285 285 285 284 284 284 283 282 282 283 283 283 283 282 282 282 281 279 279 278 277 275 274 273 272 270 269 268 266 265 263 261 261 260 260 261 261 262 262 262
285 285 286 285 285 285 285 286 286 286 284 283 282 282 283 284 283 282 281 280 279 278 277 276 276 275 273 272 271 270 268 266 264 262 260 259 259 259 259 259 259 260 260 259
Height
5707 5706 5704 5703 5702 5700 5699 5698 5698 5698 5696 5696 5693 5693 5692 5691 5690 5689 5688 5686 5685 5683 5682 5681 5680 5678 5677 5676 5675 5674 5673 5672 5670 5669 5668 5666 5665 5663 5662 5660 5659 5657 5655 5653
5702 5700 5698 5697 5696 5694 5693 5692 5691 5690 5690 5688 5686 5685 5684 5683 5682 5681 5679 5678 5676 5675 5673 5672 5670 5669 5668 5666 5665 5664 5663 5661 5660 5659 5657 5656 5654 5652 5651 5649 5648 5646 5644 5641
5695 5693 5691 5690 5689 5687 5686 5684 5683 5682 5682 5680 5679 5677 5676 5674 5673 5672 5670 5669 5667 5666 5664 5662 5661 5659 5658 5656 5655 5654 5652 5651 5649 5647 5646 5644 5643 5641 5640 5638 5636 5634 5632 5629
5686 5685 5683 5685 5681 5679 5677 5676 5674 5673 5672 5671 5670 5668 5666 5665 5663 5662 5660 5659 5658 5656 5654 5652 5650 5649 5647 5646 5644 5643 5641 5639 5638 5636 5634 5633 5631 5629 5628 5626 5624 5622 5620 5617
5676 5674 5674 5675 5672 5669 5668 5667 5665 5664 5662 5661 5660 5659 5657 5655 5653 5652 5650 5649 5647 5645 5643 5641 5639 5638 5636 5634 5633 5631 5629 5627 5626 5624 5622 5621 5619 5617 5616 5614 5612 5610 5607 5605
5667 5664 5664 5666 5662 5659 5658 5657 5656 5653 5652 5651 5649 5649 5648 5645 5643 5641 5639 5637 5635 5634 5632 5630 5628 5626 5624 5622 5621 5619 5617 5615 5613 5611 5610 5608 5606 5605 5603 5601 5599 5597 5595 5592
5657 5653 5653 5654 5651 5649 5648 5647 5645 5643 5641 5640 5638 5637 5636 5633 5631 5629 5627 5625 5623 5621 5619 5617 5615 5613 5611 5609 5608 5606 5604 5602 5600 5598 5597 5595 5593 5592 5590 5588 5587 5585 5582 5580
5646 5644 5646 5642 5640 5638 5637 5634 5632 5631 5629 5628 5626 5624 5622 5620 5618 5616 5615 5613 5610 5608 5606 5604 5602 5600 5598 5596 5594 5593 5591 5589 5587 5585 5583 5582 5580 5578 5577 5575 5573 5571 5569 5566
5636 5636 5632 5629 5627 5625 5623 5622 5620 5618 5616 5615 5613 5611 5609 5608 5605 5603 5601 5599 5597 5595 5593 5591 5588 5586 5585 5583 5581 5579 5577 5576 5574 5572 5570 5568 5567 5565 5563 5561 5560 5557 5555 5553
5623 5623 5619 5616 5614 5612 5610 5608 5607 5605 5604 5601 5600 5598 5596 5594 5592 5590 5588 5585 5583 5581 5579 5577 5575 5573 5571 5569 5567 5565 5564 5562 5560 5558 5557 5555 5553 5551 5549 5547 5545 5543 5542 5540
5608 5608 5605 5604 5600 5599 5597 5595 5594 5592 5590 5588 5586 5584 5582 5580 5578 5576 5574 5572 5569 5567 5565 5564 5561 5559 5557 5554 5552 5551 5549 5548 5546 5544 5542 5541 5539 5537 5535 5533 5531 5530 5528 5527
5594 5593 5590 5590 5587 5585 5583 5582 5580 5578 5576 5574 5572 5570 5568 5566 5564 5562 5560 5558 5555 5553 5551 5549 5547 5545 5542 5540 5538 5536 5535 5533 5531 5530 5528 5526 5525 5523 5521 5520 5518 5516 5515 5513
5578 5576 5574 5574 5573 5571 5569 5568 5566 5564 5562 5560 5558 5556 5554 5552 5550 5547 5545 5543 5541 5538 5536 5534 5532 5530 5527 5525 5523 5522 5520 5519 5517 5515 5514 5512 5511 5509 5508 5507 5505 5503 5501 5500
5562 5560 5559 5559 5557 5556 5554 5552 5551 5549 5547 5545 5543 5541 5539 5537 5535 5533 5530 5528 5526 5523 5521 5519 5517 5515 5512 5510 5509 5507 5506 5504 5503 5501 5499 5498 5497 5496 5495 5494 5493 5491 5489 5488
5547 5545 5544 5543 5541 5540 5538 5537 5536 5534 5532 5530 5528 5526 5524 5522 5520 5518 5515 5513 5511 5508 5506 5504 5502 5500 5498 5496 5495 5493 5492 5490 5489 5487 5486 5484 5483 5482 5481 5480 5479 5478 5477 5476
5531 5529 5528 5527 5525 5524 5522 5521 5520 5518 5516 5515 5513 5511 5509 5507 5505 5503 5500 5498 5496 5494 5491 5489 5487 5486 5484 5482 5481 5479 5478 5477 5475 5474 5473 5471 5470 5469 5469 5468 5467 5466 5465 5464
5515 5513 5512 5511 5510 5508 5507 5505 5504 5502 5501 5499 5497 5496 5494 5492 5490 5488 5486 5483 5481 5479 5477 5474 5473 5471 5470 5468 5467 5466 5465 5463 5462 5461 5460 5459 5458 5457 5456 5455 5454 5454 5453 5452
5498 5497 5496 5495 5494 5493 5492 5490 5488 5487 5485 5484 5482 5480 5479 5477 5475 5473 5471 5469 5467 5465 5462 5460 5458 5457 5456 5454 5453 5452 5451 5450 5449 5448 5447 5446 5445 5444 5443 5443 5442 5442 5441 5440
5483 5482 5481 5480 5479 5478 5477 5475 5474 5472 5470 5468 5467 5465 5463 5461 5460 5458 5456 5454 5453 5451 5449 5446 5444 5443 5442 5441 5440 5439 5438 5437 5436 5435 5434 5433 5432 5432 5431 5431 5430 5430 5430 5429
5470 5469 5467 5466 5465 5463 5462 5461 5459 5457 5456 5453 5451 5450 5449 5447 5444 5443 5441 5440 5438 5436 5434 5432 5431 5429 5428 5427 5426 5425 5425 5424 5423 5422 5421 5421 5420 5419 5419 5419 5419 5418 5418 5418
5456 5455 5454 5452 5451 5449 5447 5446 5444 5443 5441 5438 5436 5434 5433 5432 5430 5428 5426 5426 5425 5421 5419 5418 5417 5415 5414 5413 5412 5412 5411 5410 5410 5409 5409 5408 5408 5408 5408 5407 5407 5408 5407 5408
5442 5441 5440 5438 5437 5435 5433 5431 5429 5427 5425 5423 5421 5419 5418 5417 5415 5413 5411 5410 5409 5407 5405 5403 5402 5401 5400 5399 5399 5398 5398 5397 5397 5396 5396 5396 5396 5396 5396 5396 5397 5397 5397 5397
5429 5427 5425 5424 5422 5420 5419 5417 5414 5412 5410 5408 5406 5404 5402 5401 5399 5397 5397 5396 5393 5392 5390 5389 5388 5387 5386 5386 5385 5385 5385 5384 5384 5384 5384 5384 5384 5384 5385 5385 5386 5386 5386 5387
5415 5413 5411 5409 5407 5405 5404 5402 5399 5397 5395 5393 5392 5389 5387 5386 5385 5383 5380 5380 5378 5377 5376 5375 5374 5373 5373 5372 5372 5372 5372 5372 5372 5372 5372 5372 5373 5374 5374 5375 5375 5376 5376 5377
5400 5398 5397 5395 5392 5390 5389 5386 5384 5382 5380 5378 5377 5375 5373 5371 5369 5368 5367 5365 5364 5363 5362 5362 5361 5360 5360 5360 5360 5360 5360 5360 5360 5360 5361 5362 5363 5363 5364 5365 5366 5366 5367 5368
5386 5384 5382 5380 5377 5375 5373 5371 5369 5368 5366 5364 5363 5362 5360 5358 5356 5354 5353 5352 5351 5350 5350 5349 5349 5348 5348 5348 5348 5348 5348 5349 5349 5350 5350 5351 5352 5353 5355 5355 5356 5357 5358 5359
5373 5370 5368 5366 5364 5361 5358 5356 5354 5353 5352 5350 5349 5349 5347 5345 5343 5342 5341 5340 5340 5339 5339 5338 5338 5338 5337 5337 5337 5337 5338 5338 5339 5340 5341 5342 5343 5344 5346 5347 5348 5349 5350 5351